ISS DEB (53772 NORAD) Tracking and Keplerian Element Data

This shows tracking and keplerian element data for the satellite.

Feedback or suggestion? Click here.




ElementValue
Catalog53772
NameISS DEB
Epoch Orbit2026
Epoch Day14.24717718
Epoch Year2023
RAAN2.4713
Inclination51.6346
Eccentricity0.0004612
Argument of Perigee32.5404
Mean Anonmoly327.5877
Mean Motion15.71450012
Decay Rate0.00246212
L11 53772U 98067UK 23014.24717718 .00246212 00000+0 18355-2 0 9991
L22 53772 51.6346 2.4713 0004612 32.5404 327.5877 15.71450012 20264



Live tracking and technical data element details for ISS DEB (NORAD 53772). ISS DEB can be tracked NOW for your location showing map with azimuth and elevation plus other details from your city location.







IsCatalogInMostPopularTable: catalog: 53772, numindb: 284
Update: records affected: 1



GetName: 53772 ISS DEB

Hit Count: updated at: Mon, 17 Nov 2025 06:54:16 GMT